Flag for China Weather past 2 weeks in Hohhot, Inner Mongolia, China

Now
79 °F

Scattered clouds.


Feels Like: 78 °F
Forecast: 51 / 82 °F
Wind: 8 mph from North

Location: Hohhot Airport

Current Time: Jul 2, 2015 at 1:21:00 PM

Latest Report: Jul 2, 2015 at 1:00 PM


Visibility: N/A

Pressure: 29.83 "Hg

Humidity: 24%

Dew point: 39 °F

Location of HohhotLocation

Historic Weather in Hohhot — Graph

°F

Hohhot temperature yesterday

Maximum temperature yesterday: 82 °F (at 5:00 PM)
Minimum temperature yesterday: 57 °F (at 5:00 AM)
Average temperature yesterday: 71 °F

Past Weeks' High & Low Weather Summary

 TemperatureHumidityPressure
High91 °F (Jun 27, 4:00 PM)100% (Jun 24, 6:00 AM)30.07 "Hg (Jun 24, 6:00 AM)
Low52 °F (Jun 20, 5:00 AM)16% (Jun 30, 6:00 PM)29.56 "Hg (Jun 26, 4:00 PM)
Average70 °F53%29.81 "Hg
* Reported Jun 17 12:00 Noon — Jul 2 12:00 Noon, Hohhot, Weather by CustomWeather, © 2015

Note: Actual official high and low records may vary slightly from our data, if they occured in-between our weather recording intervals... More about our weather records

Advertising

Hohhot weather history for previous 24 hours

 ConditionsComfort  
Time TempWeatherWind HumidityBarometerVisibility
12:00 PM
Thu, Jul 2
77 °FScattered clouds.8 mph22%29.83 "HgN/A
11:00 AM75 °FPassing clouds.6 mph25%29.86 "HgN/A
10:00 AM72 °FSunny.1 mph36%29.86 "Hg10 mi
9:00 AM70 °FSunny.1 mph40%29.86 "Hg10 mi
8:00 AM66 °FPassing clouds.3 mph49%29.86 "HgN/A
7:00 AM63 °FSunny.1 mph59%29.86 "Hg10 mi
6:00 AM57 °FSunny.1 mph72%29.83 "Hg10 mi
5:00 AM55 °FClear.3 mph77%29.83 "Hg10 mi
4:00 AM57 °FClear.1 mph72%29.80 "Hg10 mi
3:00 AM59 °FClear.8 mph68%29.80 "Hg10 mi
2:00 AM59 °FClear.1 mph72%29.77 "Hg10 mi
1:00 AM61 °FClear.6 mph68%29.77 "Hg10 mi
12:00 AM63 °FPassing clouds.3 mph68%29.77 "HgN/A
11:00 PM
Wed, Jul 1
66 °FPassing clouds.3 mph60%29.77 "HgN/A
10:00 PM70 °FPassing clouds.3 mph50%29.74 "HgN/A
9:00 PM72 °FPassing clouds.13 mph47%29.71 "HgN/A
8:00 PM75 °FScattered clouds.10 mph41%29.68 "HgN/A
7:00 PM82 °FScattered clouds.10 mph21%29.65 "HgN/A
6:00 PM82 °FPartly sunny.10 mph23%29.65 "HgN/A
5:00 PM82 °FPartly sunny.17 mph23%29.65 "HgN/A
4:00 PM81 °FPartly sunny.15 mph26%29.65 "HgN/A
3:00 PM81 °FPartly sunny.15 mph26%29.68 "HgN/A
2:00 PM81 °FPartly sunny.15 mph26%29.68 "HgN/A
1:00 PM81 °FScattered clouds.17 mph30%29.71 "HgN/A
Weather by CustomWeather, © 2015

See weather overviewHow to use our weather pages